This is the latest recevied weather packets stored in our database for station/object NR6G-12. If no packets are shown the sender has not sent any weather packets the latest 10 day(s).
| Time | Temp. | Humidity | Pressure | Rain* | Wind** | Luminosity | Snow |
|---|---|---|---|---|---|---|---|
| 1788481213 | 18.33° C | 52% | 1015.2 hPa | 0 mm | - | - | - |
| 1788480853 | 18.33° C | 51% | 1015.1 hPa | 0 mm | - | - | - |
| 1788480493 | 18.89° C | 51% | 1015.1 hPa | 0 mm | - | - | - |
| 1788480135 | 18.89° C | 50% | 1015.1 hPa | 0 mm | - | - | - |
| 1788479773 | 18.33° C | 53% | 1015.2 hPa | 0 mm | - | - | - |
| 1788479413 | 18.33° C | 51% | 1015.2 hPa | 0 mm | - | - | - |
| 1788479054 | 18.33° C | 50% | 1015.2 hPa | 0 mm | - | - | - |
| 1788478693 | 18.89° C | 49% | 1015.2 hPa | 0 mm | - | - | - |
| 1788478335 | 18.89° C | 50% | 1015.3 hPa | 0 mm | - | - | - |
| 1788477973 | 19.44° C | 49% | 1015.3 hPa | 0 mm | - | - | - |
| 1788477613 | 19.44° C | 49% | 1015.4 hPa | 0 mm | - | - | - |
| 1788477254 | 19.44° C | 50% | 1015.4 hPa | 0 mm | - | - | - |
| 1788476893 | 20° C | 48% | 1015.5 hPa | 0 mm | - | - | - |
| 1788476536 | 20° C | 49% | 1015.5 hPa | 0 mm | - | - | - |
| 1788476173 | 19.44° C | 48% | 1015.5 hPa | 0 mm | - | - | - |
| 1788475813 | 20° C | 49% | 1015.6 hPa | 0 mm | - | - | - |
| 1788475453 | 20° C | 48% | 1015.7 hPa | 0 mm | - | - | - |
| 1788475093 | 19.44° C | 49% | 1015.8 hPa | 0 mm | - | - | - |
| 1788474734 | 18.89° C | 51% | 1015.8 hPa | 0 mm | - | - | - |
| 1788474374 | 19.44° C | 49% | 1015.9 hPa | 0 mm | - | - | - |
| 1788474014 | 18.89° C | 50% | 1015.9 hPa | 0 mm | - | - | - |
| 1788473653 | 18.89° C | 51% | 1015.8 hPa | 0 mm | - | - | - |
| 1788473293 | 18.89° C | 51% | 1016 hPa | 0 mm | - | - | - |
| 1788472933 | 18.33° C | 52% | 1016 hPa | 0 mm | - | - | - |
| 1788472574 | 18.89° C | 51% | 1016 hPa | 0 mm | - | - | - |
* Rain latest hour (hover to see other rain measurements)
** Current wind speed in m/s (hover to see current wind gust speed)